COSMOS 2251 DEB, 33990

Orbit data source: Space-Track

COSMOS 2251 DEB, 33990 is space debris in LEO originally from a launch on Wed, 16 Jun 1993 UTC launched from the Plesetsk Missile And Space Complex (PKMTR). The debris from Iridium 33, an American commercial communications satellite, has been tracked extensively since its accidental collision with the defunct Russian satellite Cosmos 2251 in 2009. This event, occurring at high speed in low Earth orbit (LEO), generated thousands of pieces of space debris, significantly increasing the risk of further collisions. The Iridium 33 debris cloud has impacted space traffic management and orbital debris mitigation strategies, making it a subject of ongoing study in space situational awareness.

Loading next visibility...
Identifier
33990, 1993-036FZ
Orbit
LEO
Country
Flag of CISCIS
Related business
Manufacturer
Unknown
Mission
Spacecraft
Bus & Motor
Unknown
Mass
Unknown
Launch date (UTC)
1993-06-16 (33 years ago)
Launch vehicle
Unknown
Launch site
Plesetsk Missile And Space Complex (PKMTR)
Object type
Payload
Rocket body
Debris
Shape & HBR
Unknown shape, 0.2 m
Radar Cross Section
Medium (>0.1 m² and <1 m²)

Expand to show TLE details & history
Last TLE update: 7 hours ago

TLE from 7 hours ago
0 COSMOS 2251 DEB
1 33990U 93036FZ  26120.28648735  .00001003  00000-0  96340-3 0  9998
2 33990  73.9282  63.5442 0404300  58.2011  88.4682 13.50214358845992
Epoch: 2026-04-30T06:52Z
TLE epoch observation values (Epoch: 2026-04-30T06:52:32.507Z)
Latitude
27.52412°
Longitude
-86.41636°
Altitude
1,078.575 km
Speed
7.313 km/s
True Right ascension
15h 39m 49s
True Declination
27° 23' 22"
Sunlit
Object was in full shadow at epoch
Visualization orbit readout
Latitude
Unknown
Longitude
Unknown
Altitude
Unknown
Speed
Unknown
Apparent Right ascension
Unknown
Apparent Declination
Unknown
Sunlit
N/A
Visualization observer readout
Local Sidereal Time
21:00:23
Azimuth
Unknown
Elevation
Unknown
Doppler factor
Unknown
Orbital elements
Apogee altitude
1,370.289 km
Perigee altitude
768.098 km
Semi-major axis
7,447.33 km
Eccentricity
0.04043
Inclination
73.9282°
RAAN
63.5442°
Arg. of periapsis
58.2011°
True anomaly
93.10069°
Mean anomaly
88.4682°
Eccentric anomaly
90.78445°
Mean motion
3.37709 °/min
Orbital period
106.6 mins
BSTAR
0.0009634
Loading maneuver chart data...
Computing Atmospheric mass density...

Documentation

Showing up to 5 results
|